When you browse on this site, cookies collect data to enhance your experience and personalize the content and advertising you see.
Visit our Privacy Policy to learn more. By continuing to use the site, you agree to this use of cookies and data.
  • In Hungary
  • List of Countries
  • For 7 days
  • Water Temperature
  • Weather Map
  • News
  • Weather Widgets
  • user-avatar
    Login

    Hourly Weather Golovinscheno

    Today, 22 October, Tuesday

    Time Temperature Precipitation Wind Pressure Humidity
    00:00 +8°C° 0 mm 5 mps 760 mmHg 71%
    01:00 +8°C° 0 mm 5 mps 760 mmHg 71%
    02:00 +8°C° 0 mm 6 mps 759 mmHg 72%
    03:00 +8°C° 0 mm 6 mps 759 mmHg 71%
    04:00 +8°C° 0 mm 6 mps 759 mmHg 71%
    05:00 +8°C° 0 mm 6 mps 758 mmHg 71%
    06:00 +8°C° 0 mm 6 mps 758 mmHg 71%
    07:00 +9°C° 0 mm 6 mps 758 mmHg 70%
    08:00 +9°C° 0 mm 6 mps 758 mmHg 69%
    09:00 +10°C° 0 mm 6 mps 758 mmHg 69%
    10:00 +10°C° 0.1 mm 6 mps 757 mmHg 70%
    11:00 +10°C° 0.1 mm 5 mps 757 mmHg 71%
    12:00 +10°C° 0.1 mm 5 mps 757 mmHg 72%
    13:00 +10°C° 0.3 mm 5 mps 757 mmHg 76%
    14:00 +11°C° 0.3 mm 4 mps 757 mmHg 80%
    15:00 +11°C° 0.3 mm 4 mps 757 mmHg 83%
    16:00 +10°C° 0.1 mm 3 mps 757 mmHg 86%
    17:00 +10°C° 0.1 mm 3 mps 757 mmHg 90%
    18:00 +10°C° 0.1 mm 2 mps 757 mmHg 93%
    19:00 +10°C° 0 mm 2 mps 757 mmHg 93%
    20:00 +11°C° 0 mm 1 mps 757 mmHg 93%
    21:00 +11°C° 0 mm 1 mps 757 mmHg 94%
    22:00 +10°C° 0 mm 1 mps 757 mmHg 94%
    23:00 +10°C° 0 mm 1 mps 757 mmHg 94%

    Tomorrow, 23 October, Wednesday

    Time Temperature Precipitation Wind Pressure Humidity
    00:00 +9°C° 0 mm 0 mps 757 mmHg 95%
    01:00 +8°C° 0 mm 0 mps 757 mmHg 95%
    02:00 +8°C° 0 mm 0 mps 758 mmHg 95%
    03:00 +8°C° 0 mm 0 mps 758 mmHg 96%
    04:00 +8°C° 0 mm 0 mps 757 mmHg 96%
    05:00 +8°C° 0 mm 0 mps 757 mmHg 96%
    06:00 +8°C° 0 mm 0 mps 757 mmHg 97%
    07:00 +10°C° 0 mm 1 mps 757 mmHg 93%
    08:00 +11°C° 0 mm 1 mps 758 mmHg 90%
    09:00 +12°C° 0 mm 2 mps 758 mmHg 87%
    10:00 +13°C° 0 mm 2 mps 757 mmHg 78%
    11:00 +13°C° 0 mm 3 mps 757 mmHg 69%
    12:00 +14°C° 0 mm 3 mps 757 mmHg 60%
    13:00 +14°C° 0 mm 4 mps 757 mmHg 57%
    14:00 +14°C° 0 mm 4 mps 756 mmHg 54%
    15:00 +15°C° 0 mm 4 mps 756 mmHg 51%
    16:00 +14°C° 0 mm 4 mps 756 mmHg 53%
    17:00 +13°C° 0 mm 4 mps 756 mmHg 55%
    18:00 +13°C° 0 mm 3 mps 756 mmHg 57%
    19:00 +13°C° 0 mm 3 mps 756 mmHg 61%
    20:00 +13°C° 0 mm 4 mps 756 mmHg 66%
    21:00 +12°C° 0 mm 4 mps 756 mmHg 71%
    22:00 +12°C° 0.2 mm 4 mps 756 mmHg 75%
    23:00 +12°C° 0.2 mm 4 mps 756 mmHg 79%

    Day after tomorrow, 24 October, Thursday

    Time Temperature Precipitation Wind Pressure Humidity
    00:00 +12°C° 0.2 mm 4 mps 755 mmHg 84%
    01:00 +12°C° 0 mm 3 mps 756 mmHg 87%
    02:00 +11°C° 0 mm 3 mps 756 mmHg 91%
    03:00 +10°C° 0 mm 3 mps 756 mmHg 94%
    04:00 +10°C° 0 mm 2 mps 756 mmHg 95%
    05:00 +10°C° 0 mm 2 mps 756 mmHg 95%
    06:00 +10°C° 0 mm 2 mps 756 mmHg 96%
    07:00 +12°C° 0.1 mm 2 mps 756 mmHg 94%
    08:00 +13°C° 0.1 mm 2 mps 756 mmHg 92%
    09:00 +13°C° 0.1 mm 2 mps 756 mmHg 90%
    10:00 +14°C° 0.2 mm 2 mps 756 mmHg 87%
    11:00 +14°C° 0.2 mm 2 mps 756 mmHg 84%
    12:00 +15°C° 0.2 mm 2 mps 756 mmHg 82%
    13:00 +15°C° 0 mm 2 mps 756 mmHg 79%
    14:00 +15°C° 0 mm 1 mps 756 mmHg 77%
    15:00 +16°C° 0 mm 1 mps 756 mmHg 74%
    16:00 +15°C° 0 mm 1 mps 756 mmHg 78%
    17:00 +15°C° 0 mm 1 mps 756 mmHg 81%
    18:00 +14°C° 0 mm 2 mps 756 mmHg 85%
    19:00 +14°C° 0 mm 2 mps 756 mmHg 86%
    20:00 +13°C° 0 mm 2 mps 756 mmHg 87%
    21:00 +13°C° 0 mm 2 mps 756 mmHg 88%
    22:00 +13°C° 0 mm 2 mps 756 mmHg 89%
    23:00 +12°C° 0 mm 2 mps 756 mmHg 89%

    25 October, Friday

    Time Temperature Precipitation Wind Pressure Humidity
    00:00 +12°C° 0 mm 2 mps 756 mmHg 89%
    01:00 +12°C° 0 mm 2 mps 756 mmHg 89%
    02:00 +12°C° 0 mm 1 mps 756 mmHg 89%
    03:00 +12°C° 0 mm 1 mps 756 mmHg 89%
    04:00 +12°C° 0 mm 1 mps 756 mmHg 89%
    05:00 +12°C° 0 mm 1 mps 756 mmHg 88%
    06:00 +12°C° 0 mm 1 mps 756 mmHg 88%
    07:00 +13°C° 0 mm 1 mps 757 mmHg 85%
    08:00 +13°C° 0 mm 2 mps 757 mmHg 81%
    09:00 +14°C° 0 mm 2 mps 757 mmHg 78%
    10:00 +15°C° 0 mm 2 mps 757 mmHg 74%
    11:00 +15°C° 0 mm 2 mps 757 mmHg 70%
    12:00 +16°C° 0 mm 1 mps 757 mmHg 66%
    13:00 +16°C° 0 mm 2 mps 757 mmHg 66%
    14:00 +16°C° 0 mm 2 mps 757 mmHg 65%
    15:00 +16°C° 0 mm 2 mps 757 mmHg 64%
    16:00 +15°C° 0 mm 2 mps 757 mmHg 66%
    17:00 +14°C° 0 mm 2 mps 758 mmHg 68%
    18:00 +13°C° 0 mm 2 mps 758 mmHg 71%
    19:00 +13°C° 0 mm 2 mps 758 mmHg 72%
    20:00 +13°C° 0 mm 1 mps 758 mmHg 74%
    21:00 +12°C° 0 mm 1 mps 759 mmHg 75%
    22:00 +12°C° 0 mm 1 mps 759 mmHg 76%
    23:00 +11°C° 0 mm 0 mps 759 mmHg 77%

    26 October, Saturday

    Time Temperature Precipitation Wind Pressure Humidity
    00:00 +10°C° 0 mm 0 mps 759 mmHg 78%
    01:00 +10°C° 0 mm 0 mps 759 mmHg 78%
    02:00 +11°C° 0 mm 1 mps 759 mmHg 77%
    03:00 +11°C° 0 mm 1 mps 759 mmHg 77%
    04:00 +11°C° 0 mm 1 mps 759 mmHg 77%
    05:00 +10°C° 0 mm 1 mps 759 mmHg 77%
    06:00 +10°C° 0 mm 1 mps 759 mmHg 77%
    07:00 +11°C° 0 mm 1 mps 759 mmHg 72%
    08:00 +13°C° 0 mm 1 mps 759 mmHg 67%
    09:00 +14°C° 0 mm 1 mps 760 mmHg 63%
    10:00 +15°C° 0 mm 1 mps 760 mmHg 59%
    11:00 +16°C° 0 mm 1 mps 760 mmHg 56%
    12:00 +17°C° 0 mm 2 mps 760 mmHg 52%
    13:00 +17°C° 0 mm 2 mps 759 mmHg 51%
    14:00 +17°C° 0 mm 2 mps 759 mmHg 50%
    15:00 +17°C° 0 mm 2 mps 758 mmHg 48%
    16:00 +16°C° 0 mm 2 mps 758 mmHg 51%
    17:00 +15°C° 0 mm 2 mps 758 mmHg 54%
    18:00 +13°C° 0 mm 2 mps 758 mmHg 57%
    19:00 +13°C° 0 mm 2 mps 759 mmHg 56%
    20:00 +12°C° 0 mm 2 mps 759 mmHg 55%
    21:00 +12°C° 0 mm 2 mps 759 mmHg 55%
    22:00 +12°C° 0 mm 2 mps 758 mmHg 55%
    23:00 +10°C° 0 mm 2 mps 758 mmHg 55%

    27 October, Sunday

    Time Temperature Precipitation Wind Pressure Humidity
    00:00 +10°C° 0 mm 3 mps 758 mmHg 56%
    01:00 +10°C° 0 mm 3 mps 758 mmHg 57%
    02:00 +9°C° 0 mm 3 mps 758 mmHg 59%
    03:00 +9°C° 0 mm 3 mps 758 mmHg 61%
    04:00 +9°C° 0 mm 3 mps 758 mmHg 64%
    05:00 +8°C° 0 mm 3 mps 758 mmHg 67%
    06:00 +8°C° 0 mm 3 mps 757 mmHg 70%
    07:00 +9°C° 0 mm 3 mps 757 mmHg 68%
    08:00 +10°C° 0 mm 4 mps 757 mmHg 66%
    09:00 +12°C° 0 mm 4 mps 757 mmHg 64%
    10:00 +13°C° 0 mm 5 mps 757 mmHg 60%
    11:00 +14°C° 0 mm 6 mps 757 mmHg 56%
    12:00 +15°C° 0 mm 7 mps 757 mmHg 52%
    13:00 +15°C° 0 mm 6 mps 756 mmHg 51%
    14:00 +15°C° 0 mm 6 mps 756 mmHg 50%
    15:00 +15°C° 0 mm 6 mps 755 mmHg 48%
    16:00 +14°C° 0 mm 5 mps 755 mmHg 52%
    17:00 +13°C° 0 mm 4 mps 755 mmHg 55%
    18:00 +12°C° 0 mm 3 mps 754 mmHg 59%
    19:00 +11°C° 0 mm 4 mps 754 mmHg 60%
    20:00 +11°C° 0 mm 4 mps 754 mmHg 62%
    21:00 +10°C° 0 mm 4 mps 754 mmHg 63%
    22:00 +10°C° 0 mm 4 mps 753 mmHg 65%
    23:00 +10°C° 0 mm 4 mps 753 mmHg 67%

    28 October, Monday

    Time Temperature Precipitation Wind Pressure Humidity
    00:00 +8°C° 0 mm 4 mps 753 mmHg 68%
    01:00 +8°C° 0 mm 4 mps 752 mmHg 69%
    02:00 +8°C° 0 mm 5 mps 752 mmHg 70%
    03:00 +9°C° 0 mm 5 mps 751 mmHg 71%
    04:00 +8°C° 0 mm 5 mps 751 mmHg 72%
    05:00 +8°C° 0 mm 5 mps 750 mmHg 73%
    06:00 +7°C° 0 mm 5 mps 750 mmHg 75%
    07:00 +8°C° 0 mm 5 mps 749 mmHg 70%
    08:00 +9°C° 0 mm 6 mps 749 mmHg 65%
    09:00 +10°C° 0 mm 7 mps 748 mmHg 61%
    10:00 +11°C° 0 mm 7 mps 747 mmHg 58%
    11:00 +12°C° 0 mm 8 mps 747 mmHg 55%
    12:00 +13°C° 0 mm 8 mps 746 mmHg 53%
    13:00 +13°C° 0 mm 8 mps 745 mmHg 55%
    14:00 +13°C° 0 mm 8 mps 745 mmHg 56%
    15:00 +13°C° 0 mm 8 mps 744 mmHg 58%
    16:00 +12°C° 0.8 mm 8 mps 744 mmHg 65%
    17:00 +11°C° 0.8 mm 7 mps 744 mmHg 73%
    18:00 +10°C° 0.8 mm 6 mps 744 mmHg 80%
    19:00 +9°C° 0.1 mm 5 mps 744 mmHg 78%
    20:00 +8°C° 0.1 mm 5 mps 745 mmHg 75%
    21:00 +7°C° 0.1 mm 4 mps 745 mmHg 73%
    22:00 +6°C° 0 mm 4 mps 745 mmHg 73%
    23:00 +6°C° 0 mm 4 mps 745 mmHg 73%
    Show more